This is the latest recevied weather packets stored in our database for station/object IW2NTF-3. If no packets are shown the sender has not sent any weather packets the latest 10 day(s).
| Time | Temp. | Humidity | Pressure | Rain* | Wind** | Luminosity | Snow |
|---|---|---|---|---|---|---|---|
| 1777462263 | 22.22° C | 56% | 1016.6 hPa | 0 mm | - | 726 W/m² | - |
| 1777462203 | 22.22° C | 56% | 1016.6 hPa | 0 mm | - | 540 W/m² | - |
| 1777462143 | 22.22° C | 56% | 1016.6 hPa | 0 mm | - | 540 W/m² | - |
| 1777462083 | 22.22° C | 56% | 1016.6 hPa | 0 mm | - | 540 W/m² | - |
| 1777462023 | 22.22° C | 56% | 1016.8 hPa | 0 mm | - | 584 W/m² | - |
| 1777461963 | 22.22° C | 56% | 1016.8 hPa | 0 mm | - | 584 W/m² | - |
| 1777461903 | 22.22° C | 56% | 1016.6 hPa | 0 mm | - | 622 W/m² | - |
| 1777461843 | 22.22° C | 56% | 1016.6 hPa | 0 mm | - | 657 W/m² | - |
| 1777461784 | 22.22° C | 56% | 1016.6 hPa | 0 mm | - | 638 W/m² | - |
| 1777461724 | 22.22° C | 57% | 1016.6 hPa | 0 mm | - | 881 W/m² | - |
| 1777461664 | 22.22° C | 57% | 1016.6 hPa | 0 mm | - | 881 W/m² | - |
| 1777461604 | 22.22° C | 57% | 1016.6 hPa | 0 mm | - | 795 W/m² | - |
| 1777461544 | 22.22° C | 56% | 1016.6 hPa | 0 mm | - | 608 W/m² | - |
| 1777461484 | 22.22° C | 56% | 1016.6 hPa | 0 mm | - | 608 W/m² | - |
| 1777461423 | 22.22° C | 56% | 1016.7 hPa | 0 mm | - | 687 W/m² | - |
| 1777461364 | 22.22° C | 56% | 1016.7 hPa | 0 mm | - | 561 W/m² | - |
| 1777461303 | 22.22° C | 56% | 1016.7 hPa | 0 mm | - | 615 W/m² | - |
| 1777461244 | 22.22° C | 56% | 1016.7 hPa | 0 mm | - | 663 W/m² | - |
| 1777461183 | 22.22° C | 56% | 1016.7 hPa | 0 mm | - | 694 W/m² | - |
| 1777461123 | 22.22° C | 56% | 1016.8 hPa | 0 mm | - | 619 W/m² | - |
| 1777461063 | 22.22° C | 56% | 1016.8 hPa | 0 mm | - | 619 W/m² | - |
| 1777461003 | 22.22° C | 57% | 1016.8 hPa | 0 mm | - | 592 W/m² | - |
| 1777460943 | 21.67° C | 57% | 1016.7 hPa | 0 mm | - | 536 W/m² | - |
| 1777460883 | 21.67° C | 57% | 1016.7 hPa | 0 mm | - | 536 W/m² | - |
| 1777460823 | 21.67° C | 57% | 1016.7 hPa | 0 mm | - | 527 W/m² | - |
* Rain latest hour (hover to see other rain measurements)
** Current wind speed in m/s (hover to see current wind gust speed)